Weather Roundup
Issued by NWS

Home | Current Version | Previous Version | Graphics & Text | Print | Product List | Glossary Off
Versions: 1 2 3 4 5 6 7 8 9 10 11 12 13 14 15 16 17 18 19 20 21 22 23 24 25 26 27 28 29 30 31 32 33 34 35 36 37 38 39 40 41 42 43 44 45 46 47 48 49 50

458
NZUS93 KARX 021710
HRRWXR

CURRENT HOURLY OBSERVATIONS ACROSS
MUCH OF THE UPPER MISSISSIPPI VALLEY
NATIONAL WEATHER SERVICE LA CROSSE WI
1100 AM CST FRI DEC 02 2016


...SOUTHEAST MINNESOTA...


CITY           SKY/WX    TMP DP  RH WIND       PRES   REMARKS
ROCHESTER      CLOUDY    30  23  75 NW12      30.21R WCI  20
ROCHESTER/MAYO CLOUDY    31  23  73 W5        30.22S WCI  26
WINONA         CLOUDY    34  27  75 N9        30.23R WCI  26
AUSTIN         CLOUDY    30  23  74 N8        30.22R WCI  23
ALBERT LEA     CLOUDY    34  27  75 NW6       30.23R WCI  29
DODGE CENTER   CLOUDY    28  23  80 NW9       30.21S WCI  20
PRESTON        CLOUDY    29  22  73 NW10      30.21S WCI  20
OWATONNA       CLOUDY    30  23  74 NW9       30.22S WCI  22
FARIBAULT      CLOUDY    30  23  74 W7        30.24R WCI  23
$$

...ELSEWHERE IN MINNESOTA...


CITY           SKY/WX    TMP DP  RH WIND       PRES   REMARKS
MINNEAPOLIS    CLOUDY    33  23  66 NW8       30.23R WCI  26
INTNL FALLS    CLOUDY    26  22  84 W6        30.19R WCI  19
DULUTH         CLOUDY    27  22  81 N9        30.16R WCI  18
RED WING       CLOUDY    34  21  60 W7        30.22S WCI  28
REDWOOD FALLS  CLOUDY    30  20  66 N9        30.26R WCI  22
MANKATO        CLOUDY    30  24  78 NW12      30.24  WCI  20
WORTHINGTON    CLOUDY    30  25  80 NW13      30.25R WCI  20
FAIRMONT       CLOUDY    31  25  78 NW10      30.25R WCI  22
$$

...SOUTHWEST WISCONSIN...


CITY           SKY/WX    TMP DP  RH WIND       PRES   REMARKS
LA CROSSE      CLOUDY    35  22  58 NW8       30.22R WCI  29
PRAIRIE DU CHI CLOUDY    34  23  64 NW9       30.22S WCI  27
BOSCOBEL       CLOUDY    36  23  59 N9        30.22R WCI  29
LONE ROCK      CLOUDY    34  23  64 NW8       30.20R WCI  27
PLATTEVILLE    CLOUDY    34  28  77 W9        30.19R WCI  27
FORT MC COY    CLOUDY    31  23  70 W8        30.22R WCI  24
CAMP DOUGLAS   CLOUDY    32  23  69 NW8       30.18S WCI  25
MAUSTON-NEW LI CLOUDY    32  23  70 NW7       30.18S WCI  26
VIROQUA        CLOUDY    30  24  78 N8        30.18S WCI  23
WIS DELLS      CLOUDY    32  23  69 NW7       30.17S WCI  26
$$

...ELSEWHERE IN WISCONSIN...


CITY           SKY/WX    TMP DP  RH WIND       PRES   REMARKS
MILWAUKEE      CLOUDY    36  22  56 NW13      30.16R WCI  27
MADISON        CLOUDY    33  23  66 N8        30.17S WCI  26
GREEN BAY      CLOUDY    35  27  72 W13       30.14R WCI  26
EAU CLAIRE     CLOUDY    32  22  66 W7        30.20R WCI  26
BLACK RVR FLS  CLOUDY    32  22  67 NW5       30.20S WCI  27
MEDFORD        CLOUDY    28  22  78 NW7       30.14S WCI  21
WAUSAU         CLOUDY    31  23  72 W10       30.13S WCI  22
WIS RAPIDS     CLOUDY    32  23  69 NW10      30.17S WCI  24
MARSHFIELD     CLOUDY    30  21  69 NW10      30.15R WCI  21
RICE LAKE      CLOUDY    31  24  75 W6        30.21R WCI  25
$$

...NORTHEAST IOWA...


CITY           SKY/WX    TMP DP  RH WIND       PRES   REMARKS
WATERLOO       CLOUDY    35  26  69 NW16      30.23R WCI  25
DUBUQUE        CLOUDY    35  27  72 NW15      30.20R WCI  25
DECORAH        CLOUDY    32  23  69 NW7       30.20R WCI  26
MASON CITY     CLOUDY    31  24  75 NW12      30.25R WCI  22
CHARLES CITY   CLOUDY    32  25  74 NW12      30.23S WCI  23
OELWEIN        CLOUDY    34  28  80 NW10G18   30.22R WCI  26
$$

...ELSEWHERE IN IOWA...


CITY           SKY/WX    TMP DP  RH WIND       PRES   REMARKS
DES MOINES     CLOUDY    39  32  76 NW7       30.27R WCI  34
IOWA CITY      CLOUDY    39  29  67 W9        30.26R WCI  33
FORT DODGE     CLOUDY    36  28  75 N6        30.26R WCI  31
MARSHALLTOWN   CLOUDY    36  30  79 W9        30.25R WCI  29
CEDAR RAPIDS   CLOUDY    36  31  82 W9        30.23R WCI  29
$$

...NORTHERN ILLINOIS...


CITY           SKY/WX    TMP DP  RH WIND       PRES   REMARKS
CHICAGO-OHARE  CLOUDY    38  30  73 W10       30.15S WCI  31
CHICAGO-MIDWAY CLOUDY    39  30  70 NW9       30.17R WCI  33
MOLINE         CLOUDY    40  32  73 W8        30.22R WCI  34
ROCKFORD       CLOUDY    36  32  85 NW7       30.20R WCI  30
PEORIA         CLOUDY    40  33  76 W10       30.23S WCI  33
$$

NOTE: "FAIR" INDICATES FEW OR NO CLOUDS BELOW 12,000 FEET WITH NO
SIGNIFICANT WEATHER AND/OR OBSTRUCTIONS TO VISIBILITY. WIND
SPEEDS ARE IN MILES-PER-HOUR.




USA.gov is the U.S. government's official web portal to all federal, state and local government web resources and services.